Regional Weather Roundup
Issued by NWS Charleston, SC

Current Version | Previous Version | Text Only | Print | Product List | Glossary Off
Versions: 1 2 3 4 5 6 7 8 9 10 11 12 13 14 15 16 17 18 19 20 21 22 23 24 25 26 27 28 29 30 31 32 33 34 35 36 37 38 39 40 41 42 43 44 45 46 47 48 49 50

428
ASUS42 KCHS 240127
RWRCHS

REGIONAL WEATHER ROUNDUP
NATIONAL WEATHER SERVICE CHARLESTON SC
900 PM EDT THU MAR 23 2017

NOTE: "FAIR" INDICATES FEW OR NO CLOUDS BELOW 12,000 FEET WITH NO
SIGNIFICANT WEATHER AND/OR OBSTRUCTIONS TO VISIBILITY.

NOT ALL STATIONS ARE QUALITY CONTROLLED. USE DATA WITH CAUTION...
ESPECIALLY DEWPOINT OBSERVATIONS.

SCZ027-030-031-034>040-042>050-240200-
...SOUTHEAST SOUTH CAROLINA...

CITY           SKY/WX    TMP DP  RH WIND       PRES   REMARKS
N CHARLESTON   PTCLDY    51  37  58 E10       30.49R
WATERFRONT PRK   N/A     54  44  69 NE12      30.48S
JOHNS ISLAND   FAIR      54  43  66 NE9G16    30.49R
PINOPOLIS        N/A     52  39  62 SE7G14    30.40R
MONCKS CORNER  FAIR      48  34  57 CALM      30.50R
SUMMERVILLE    FAIR      52  36  54 E8        30.50R
BEAUFORT MCAS  CLEAR     55  45  68 E9        30.47R
BEAUFORT ARPT  FAIR      54  43  66 E10G17    30.47R
HILTON HEAD IS CLEAR    N/A N/A N/A NE12G18   30.47R
WALTERBORO     CLEAR     52  41  66 E7        30.49R
ALLENDALE      FAIR      57  36  44 CALM      30.45R

...SOUTHERN MIDLANDS AND PEE DEE...

CITY           SKY/WX    TMP DP  RH WIND       PRES   REMARKS
GEORGETOWN     FAIR      48  36  61 E6        30.52S
KINGSTREE      FAIR      48  32  53 E7        30.51R
ORANGEBURG     PTCLDY    54  35  48 E3        30.47R
BARNWELL       FAIR      59  37  44 E9        30.46R
AIKEN          FAIR      54  32  43 E6        30.48R
MANNING        FAIR      50  34  53 SE3       30.50R
COLUMBIA       PTCLDY    56  30  37 E5        30.46R
SUMTER         CLEAR     52  27  38 E6        30.45R
FLORENCE       CLEAR     51  33  50 SE9       30.50R
MYRTLE BEACH   CLEAR     50  36  57 E13       30.53
N MYRTLE BEACH CLEAR     50  34  54 E10       30.52S

$$

GAZ063-065-086>088-099>101-113>116-118-119-134>141-150-240200-
...SOUTHEAST GEORGIA...

CITY           SKY/WX    TMP DP  RH WIND       PRES   REMARKS
SAVANNAH ARPT  CLEAR     55  45  68 E8        30.46R
HUNTER AAF     CLEAR     55  50  83 E7        30.43S
FORT STEWART   PTCLDY    55  48  75 E7        30.42R
STATESBORO     PTCLDY    58  45  60 SE3       30.45R
SYLVANIA       PTCLDY   N/A N/A N/A SE3       30.45S
CLAXTON        FAIR      57  46  68 NE5       30.45R

...CSRA...CENTRAL AND FAR SOUTHEAST GEORGIA...

CITY           SKY/WX    TMP DP  RH WIND       PRES   REMARKS
THOMSON        CLOUDY    58  35  42 S7        30.48R
AUGUSTA-BUSH   CLEAR     58  36  43 E3        30.43R
AUGUSTA-DANIEL CLEAR     60  31  33 E7        30.44R
SWAINSBORO     CLOUDY    61  43  51 SE12      30.44R
VIDALIA        PTCLDY    61  43  51 E10       30.43R
EASTMAN        CLOUDY    64  39  39 SE6       30.43S
HAZLEHURST     FAIR      62  45  54 E8        30.41R
ALMA           PTCLDY    60  48  64 E7        30.41R
WAYCROSS       CLEAR     60  55  83 E7        30.41S
JESUP          FAIR      55  50  82 E7        30.44R
BAXLEY         FAIR      59  50  72 E6        30.42R
BRUNSWICK      CLOUDY    59  55  88 NE13      30.43S
SAINT SIMONS   CLOUDY    60  54  80 NE14G21   30.42R

$$

SCZ027-028-034-036>038-045-046-048>050-GAZ119-141-240200-
...LAKE AND SUPPLEMENTAL COASTAL OBSERVATIONS...

STATION/POSITION TIME  TEMP    WIND        PRES    WAVE   SWELL
                       AIR SEA DIR/SP/G            HT/PER HT/PER/DIR
                 (UTC) (F)     (DEG/KT/KT) (MB)    (FT/S) (FT/S/D)
WINYAH BAY       0030   52      90/ 11     1033.0S
LAKE MURRAY      0020   58      70/  4/  7 1030.5
ACE BASIN NERRS  0030   53      50/  4     1032.0S
FORT PULASKI     0100   57 61   70/ 18/ 24 1031.2
SAPELO ISLAND    0100   58      50/ 10     1030.0

$$

ANZ835-935-AMZ111-154-330-350-352-354-370-450-454-472-240200-
...C-MAN AND BUOY OBSERVATIONS...

STATION/POSITION TIME  TEMP    WIND        PRES    WAVE   SWELL
                       AIR SEA DIR/SP/G            HT/PER HT/PER/DIR
                 (UTC) (F)     (DEG/KT/KT) (MB)    (FT/S) (FT/S/D)
BUOY 41004       0050   62 71   60/ 19/ 23 1030.7S   7/ 7   2/ 80/ 8
BUOY 41008       0050   60 62   60/ 21/ 25 1029.2S   7/ 7   2/ 90/10
FOLLY BEACH CMAN 0100   55      60/ 20/ 22 1032.4F
CAPERS NEARSHORE 0108   55      60/ 19/ 25 1031.9F
FRIPP NEARSHORE  0108   57 60   60/ 19/ 25 1031.5R


STATION/POSITION TIME  TEMP    WIND        PRES    WAVE   SWELL
                       AIR SEA DIR/SP/G            HT/PER HT/PER/DIR
                 (UTC) (F)     (DEG/KT/KT) (MB)    (FT/S) (FT/S/D)
5E ST. MARYS GA  0100      63                N/A     7/ 7   2/100/11
FRYING PAN BUOY  0110   55 65   50/ 16/ 21 1033.5
BUOY 41025       0050   49 73   40/ 10/ 14 1035.4R   8/11   8/ 40/11
CAPE LOOKOUT NC  0100   47      40/ 10/ 12 1035.1R
BUOY 41002       0050   62 72   50/ 19/ 25 1031.0R   7/11   5/ 30/11
BUOY 41010       NOT AVBL
ST AUGUSTINE FL  0100   66 65   70/ 15/ 16 1029.1R


$$




USA.gov is the U.S. government's official web portal to all federal, state and local government web resources and services.